RH
26 25 26 19 18 18 19 21 22 19 16 20 21 19 17 15 14 12 12 11 13 14 16 21 26 28 29 31 30 26 25 25 32 46 56 60 61 60 60 60 58 53 53 54
29 30 20 19 24 24 22 24 23 20 16 22 22 23 19 17 14 13 13 14 17 19 22 26 30 33 33 34 33 31 30 28 30 41 49 51 53 56 55 61 59 56 55 53
28 24 21 23 24 25 24 26 25 25 21 22 23 24 19 16 14 14 14 17 21 26 30 34 36 37 39 40 38 33 32 32 32 40 44 51 54 54 58 60 60 60 56 55
29 25 28 28 28 23 29 21 24 27 32 34 25 34 23 16 15 17 22 27 28 33 34 38 40 40 42 43 42 35 35 33 34 37 40 47 54 53 48 48 53 58 57 56
27 33 34 34 27 24 24 26 26 30 36 37 30 31 21 17 17 18 29 33 34 36 37 39 42 42 40 45 46 41 39 36 33 34 38 40 42 41 41 41 43 48 54 58
26 27 26 24 24 26 29 28 28 32 36 47 30 26 22 17 17 25 34 35 37 36 37 37 38 39 39 42 42 45 40 40 41 39 36 37 40 41 42 43 44 43 46 52
29 29 27 27 29 31 31 31 47 52 53 54 24 30 23 17 26 25 35 36 36 37 39 41 42 40 41 42 41 37 40 43 42 44 43 44 42 39 37 38 40 45 45 49
40 39 31 30 31 34 35 35 54 70 58 46 51 44 27 34 36 37 34 35 36 37 38 39 39 38 38 41 40 39 38 38 40 42 45 47 46 45 42 42 43 44 44 46
43 39 32 32 29 29 35 39 38 64 70 69 41 30 21 43 42 38 36 34 36 37 38 36 37 40 39 39 37 35 36 37 36 37 42 45 44 47 49 50 50 49 50 43
43 60 40 39 32 32 37 44 80 74 96 84 38 31 28 25 38 41 40 38 36 35 34 34 32 39 38 37 39 35 33 35 36 37 38 40 42 43 43 48 56 55 53 53
46 59 51 43 41 40 38 41 40 37 47 64 62 40 24 37 42 42 39 37 36 34 32 31 35 30 34 31 34 35 34 35 38 37 40 47 46 42 40 43 45 55 61 58
46 68 88 51 34 36 45 45 43 62 76 53 63 70 30 46 45 45 38 37 35 36 23 22 33 25 24 26 29 29 29 34 38 33 37 44 46 52 50 45 46 56 55 60
64 88 96 73 40 60 64 46 48 51 62 76 86 65 39 50 52 50 48 37 38 38 25 20 24 24 20 21 22 21 21 26 34 33 37 40 47 50 49 52 54 56 58 60
69 64 76 77 51 48 70 60 68 86 93 83 69 53 42 45 52 49 43 38 39 37 25 22 25 26 26 22 21 20 19 19 30 33 36 45 49 47 47 49 51 55 59 59
63 90 68 65 58 57 62 64 57 62 59 72 60 64 55 51 44 41 48 30 27 32 20 20 24 26 28 28 26 23 22 26 28 32 44 42 47 48 57 63 60 56 62 58
49 83 71 84 59 58 66 57 56 56 57 54 50 48 30 28 35 36 33 24 21 29 18 20 24 26 27 29 34 29 27 30 34 47 60 54 63 65 67 66 64 58 55 58
65 75 80 83 57 58 76 61 50 46 40 41 48 57 62 42 34 32 31 26 19 23 20 21 25 27 29 30 37 36 31 40 57 68 72 75 70 67 64 63 60 57 55 54
70 77 78 84 78 93 47 24 32 39 42 50 65 72 54 35 24 26 28 30 26 24 24 21 28 30 31 35 36 33 48 57 60 66 67 68 65 63 61 62 62 57 53 56
47 58 79 92 82 53 45 34 33 40 44 40 61 37 27 26 28 24 17 21 25 25 25 28 34 38 37 37 37 46 52 54 54 54 58 57 59 66 64 70 68 60 62 63
36 44 63 77 88 78 30 32 38 34 56 83 67 52 44 34 40 28 21 28 27 23 27 36 46 44 41 37 36 53 55 58 57 56 57 57 63 70 72 68 70 69 71 69
60 74 84 83 84 62 57 56 37 69 62 83 61 49 47 44 36 34 32 29 31 39 44 49 47 42 38 37 54 59 59 60 57 62 64 67 68 73 72 74 74 77 77 73
35 56 71 72 77 70 46 49 55 45 56 59 41 36 38 36 38 37 32 33 35 48 49 45 45 44 41 45 63 66 62 57 64 70 72 74 75 75 75 79 78 79 81 82
58 43 53 54 46 33 39 43 39 45 62 50 41 38 37 40 36 34 35 38 49 46 46 54 67 67 52 66 69 74 67 69 72 77 79 78 78 79 79 82 83 82 82 84
44 34 48 59 39 38 35 32 31 33 37 35 35 40 40 43 40 40 48 51 51 60 65 67 75 79 78 70 72 75 73 74 80 83 82 80 82 80 79 76 75 81 83 84
47 39 55 56 42 38 37 34 35 36 36 36 36 38 44 47 49 46 54 64 57 59 62 69 76 77 75 71 74 76 77 80 86 86 83 82 78 79 78 74 74 75 78 82
42 44 49 55 35 35 33 33 33 38 38 44 51 59 59 59 57 52 59 55 57 63 66 73 74 76 78 78 79 80 80 84 85 85 79 76 77 76 73 74 73 74 78 78
Wind_Speed
8 9 11 16 17 20 20 19 20 21 18 17 17 16 17 20 20 16 11 8 10 13 16 18 19 20 20 19 19 16 10 4 4 6 7 7 7 7 7 7 9 12 10 12
5 12 17 16 8 12 15 17 19 16 8 1 13 18 21 17 19 7 8 10 13 13 16 18 19 20 20 19 19 17 15 10 3 3 3 5 5 5 6 5 7 9 10 12
17 13 5 11 13 15 16 16 18 18 14 11 11 15 14 10 14 10 12 14 15 14 15 17 19 21 20 21 19 18 16 12 9 6 4 2 3 3 4 4 5 6 10 9
12 7 7 10 16 13 16 11 11 11 6 10 4 11 12 8 8 15 12 13 14 14 14 14 16 20 21 20 17 18 17 16 12 9 5 5 4 6 4 5 5 5 9 11
1 5 4 8 9 7 6 1 4 5 10 12 10 8 8 5 8 14 10 10 12 12 13 14 15 15 16 16 15 15 17 16 15 13 10 7 7 6 5 3 7 6 7 10
17 3 4 10 1 7 2 6 10 7 6 11 14 12 7 1 6 12 9 10 9 10 12 14 13 14 15 13 13 13 15 17 17 16 15 12 10 9 7 7 6 5 5 5
6 10 5 3 7 5 7 8 9 9 9 14 6 7 12 4 8 8 10 9 8 9 10 11 12 12 12 13 13 11 15 17 17 16 16 15 13 11 10 9 7 7 5 4
11 16 6 8 5 7 8 9 8 12 14 14 4 9 8 13 12 11 11 9 6 7 8 12 11 11 11 13 15 15 17 16 15 14 13 12 13 8 8 9 9 6 7 6
11 10 3 3 1 3 4 6 7 6 9 10 14 20 19 15 11 8 9 8 7 7 9 10 10 10 11 13 15 16 15 14 15 15 12 12 12 13 11 11 9 7 8 7
3 10 4 3 1 8 8 1 5 3 5 8 13 20 15 13 8 7 5 5 7 8 9 9 10 10 10 11 12 13 13 14 14 13 13 11 12 12 11 10 12 12 10 8
5 4 15 10 9 14 7 6 12 13 11 13 17 14 11 7 3 6 5 3 4 5 7 7 7 8 8 9 9 9 10 11 11 11 11 10 10 11 10 9 10 11 12 12
8 2 8 23 20 17 9 15 17 14 9 11 12 13 13 2 5 4 5 5 1 3 5 5 5 5 6 7 8 8 9 9 10 10 10 8 9 8 8 10 11 11 11 11
3 4 5 9 9 2 8 11 14 19 18 24 18 14 2 4 5 6 6 6 5 2 1 4 5 5 7 8 8 8 8 8 8 10 9 9 8 9 9 9 9 10 10 10
0 8 15 14 18 19 17 18 16 14 12 14 16 21 17 12 5 6 5 5 6 5 3 2 4 5 5 7 8 9 10 10 9 9 9 9 9 9 8 9 10 10 10 9
6 12 15 18 21 21 21 19 23 23 24 24 24 23 21 18 20 13 8 5 5 5 3 3 4 5 7 7 7 8 9 9 10 12 11 10 10 11 11 10 10 11 11 10
8 10 12 17 18 20 23 24 27 24 24 26 25 26 22 12 8 2 4 4 7 6 5 5 6 6 7 9 7 8 10 9 8 10 11 12 10 11 10 10 11 12 13 12
12 8 9 19 15 18 16 23 22 24 23 23 23 13 8 6 5 5 6 7 8 9 7 7 8 8 8 9 8 10 10 8 7 9 10 10 10 11 11 10 12 13 14 14
12 11 9 15 11 20 13 10 8 13 15 13 10 2 1 2 6 7 7 10 11 11 11 9 8 9 10 10 9 9 7 7 10 11 12 12 12 13 13 13 13 14 14 15
18 15 9 9 15 19 24 18 19 14 18 11 4 5 2 6 9 13 10 7 10 12 11 9 6 8 10 10 9 8 8 9 10 12 13 13 13 15 15 16 15 16 15 15
5 13 12 10 14 17 14 4 4 4 12 6 6 4 6 9 10 11 12 11 11 11 10 6 5 9 10 10 10 9 11 11 12 12 13 14 15 15 17 18 19 17 16 18
3 4 14 14 16 12 3 6 2 8 7 9 4 7 10 11 11 14 12 12 10 8 4 6 8 10 10 10 9 11 13 14 14 14 14 15 15 16 17 19 17 17 18 19
8 8 7 5 7 13 5 6 6 3 5 4 9 14 14 13 12 12 13 11 9 5 5 7 9 11 11 11 10 14 16 15 15 16 17 16 16 13 14 18 17 18 18 20
8 11 7 7 6 2 8 10 10 11 10 14 17 14 12 12 13 12 11 8 5 6 7 7 7 11 12 9 8 14 16 15 16 17 17 17 17 15 15 16 17 15 15 15
15 16 12 13 15 22 18 18 18 16 17 16 15 13 11 12 11 10 6 5 6 5 6 6 8 9 12 9 11 11 14 14 15 18 18 16 16 17 16 13 13 13 13 14
13 4 12 13 20 20 19 20 19 18 17 16 12 10 9 7 7 5 4 4 6 6 7 7 8 10 13 12 13 12 13 14 16 16 16 17 14 16 15 14 13 13 15 16
17 22 13 15 19 16 18 16 13 13 16 11 7 4 2 1 4 2 4 4 5 7 8 9 9 11 13 13 14 13 13 13 15 16 14 13 14 14 13 14 14 23 31 33
Wind_Direction
197 216 222 249 237 251 276 287 286 282 294 304 295 296 289 288 290 291 308 338 54 66 49 35 28 25 22 19 10 357 344 301 236 215 225 232 237 220 226 231 219 212 198 200
181 232 248 269 300 283 277 274 276 284 294 269 279 299 288 282 272 319 347 71 67 46 41 34 28 26 28 24 18 18 7 359 336 264 239 248 246 255 243 220 238 228 214 198
244 267 296 260 256 260 264 267 275 282 314 280 278 273 285 246 258 66 101 88 67 53 39 29 29 28 26 27 18 22 24 30 22 355 336 309 1 323 336 264 236 233 245 214
259 279 259 237 252 262 267 278 279 277 278 294 32 297 300 275 158 117 81 57 55 48 51 46 35 30 27 26 24 29 26 24 29 20 19 338 305 296 271 246 265 244 223 231
204 169 184 218 228 216 279 349 252 248 262 291 253 252 238 233 221 121 78 60 55 52 48 44 42 44 36 31 26 29 36 32 33 26 25 10 344 325 318 352 290 229 236 234
260 104 214 243 205 220 38 261 248 253 270 259 261 228 277 194 137 132 100 69 59 57 57 53 45 41 35 31 31 31 36 34 35 33 26 16 4 344 332 323 300 285 245 216
211 227 168 244 253 187 220 264 287 257 233 257 283 240 254 219 115 126 127 107 80 70 61 58 49 42 38 32 29 31 35 34 29 28 31 25 10 357 341 336 325 324 295 266
283 291 184 148 254 313 285 255 252 283 280 292 138 258 279 101 113 111 112 109 100 69 57 49 43 37 34 31 31 27 31 29 27 26 26 25 27 14 357 347 336 325 318 310
306 268 122 202 264 270 124 230 11 323 296 281 265 270 270 138 117 117 121 118 91 63 44 35 34 30 27 26 25 30 29 25 22 17 19 22 20 22 15 4 352 339 324 313
338 291 275 91 167 226 239 2 292 179 246 246 261 284 284 268 160 153 126 76 48 42 39 29 27 26 26 26 22 23 24 22 16 17 14 13 13 13 13 7 10 358 329 313
323 247 273 299 242 267 234 230 225 253 257 267 274 270 315 11 139 171 151 102 64 35 25 19 27 17 24 30 28 21 17 16 12 10 7 4 7 8 6 8 4 359 344 339
265 254 253 273 286 301 284 272 267 259 252 248 261 257 296 344 170 183 171 166 140 20 18 17 29 23 19 28 22 14 9 10 2 359 359 1 357 358 358 360 355 351 348 344
87 211 290 290 269 190 226 262 255 259 262 258 266 272 282 150 165 204 219 208 210 191 6 355 346 5 5 9 12 1 359 3 356 352 347 347 349 350 352 348 340 335 333 336
30 259 248 259 277 308 295 293 296 296 274 268 256 281 277 255 268 279 269 254 235 208 215 309 301 318 337 345 351 345 346 346 350 342 342 334 334 332 336 331 329 324 324 323
245 251 258 258 264 276 283 283 280 271 276 276 288 288 284 288 293 311 246 272 272 231 246 303 300 316 314 309 327 325 322 323 333 333 329 324 323 325 322 315 315 317 314 314
247 273 290 278 278 275 275 272 267 272 272 274 275 274 279 321 11 317 248 256 276 254 276 310 321 323 318 315 307 315 304 308 323 313 306 310 313 314 308 308 311 313 312 306
268 266 268 267 279 283 269 253 262 264 266 272 274 308 356 337 323 301 290 276 293 281 268 298 315 328 321 322 313 294 302 316 309 294 291 290 297 296 295 299 305 308 307 307
254 259 259 271 280 258 266 281 293 284 287 296 312 66 86 335 316 306 283 274 276 284 265 272 300 311 322 323 316 312 307 301 293 293 296 294 289 291 291 294 294 300 302 301
234 252 262 254 250 276 291 289 286 300 288 309 232 171 41 341 313 287 270 268 275 285 284 281 295 309 315 317 323 329 310 298 296 293 292 292 294 293 291 287 286 290 292 290
243 241 242 251 260 264 289 20 17 314 278 122 113 169 301 308 285 290 321 328 299 283 291 295 325 305 311 329 336 329 308 307 300 298 296 297 297 294 292 292 291 290 288 285
213 240 233 244 257 266 284 83 126 245 300 156 177 296 297 281 274 295 296 291 281 275 310 328 311 310 318 338 340 313 308 305 308 309 305 301 298 297 295 295 291 290 288 284
254 253 226 230 263 271 74 122 223 339 138 217 283 296 292 287 283 284 281 282 291 336 328 314 317 310 323 335 336 312 305 316 317 312 306 305 303 297 292 290 290 287 284 280
242 242 263 243 262 215 190 257 262 274 270 289 296 292 293 283 277 275 282 301 317 318 338 341 329 314 314 327 317 302 305 315 311 307 303 302 300 296 291 288 288 288 283 279
257 252 249 258 251 259 268 267 270 275 274 284 284 289 282 272 281 282 298 304 311 329 330 335 320 303 301 313 307 300 305 307 304 299 300 300 296 296 290 283 281 281 281 281
244 229 240 252 257 269 263 262 265 269 275 281 285 288 271 270 263 280 301 312 309 321 324 324 310 302 301 309 306 306 304 305 301 300 300 298 294 293 294 285 283 278 272 270
239 241 246 250 260 262 271 277 280 287 283 288 283 212 193 232 272 303 277 302 314 314 318 309 302 299 299 303 302 303 303 302 304 301 298 296 297 294 292 291 288 280 285 287